SPARC-1 (44226 NORAD) Tracking and Keplerian Element Data

This shows tracking and keplerian element data for the satellite.

Feedback or suggestion? Click here.




ElementValue
Catalog44226
NameSPARC-1
Epoch Orbit451
Epoch Day154.94398187
Epoch Year2019
RAAN61.5286
Inclination40.0206
Eccentricity0.001006
Argument of Perigee125.8013
Mean Anonmoly234.3719
Mean Motion15.2125332
Decay Rate1.191E-05
L11 44226U 19026B 19154.94398187 .00001191 00000-0 60172-4 0 9997
L22 44226 40.0206 61.5286 0010060 125.8013 234.3719 15.21253320 4510

Live tracking and technical data element details for SPARC-1 (NORAD 44226). SPARC-1 can be tracked NOW for your location showing map with azimuth and elevation plus other details from your city location.

Track the satellite on the map from your city or location and see movement details for azimuth, elevation, latitude, longitude, range, height, and movement on the map or in text.







IsCatalogInMostPopularTable: catalog: 44226, numindb: 18
Update: records affected: 1



GetName: 44226 SPARC-1

Hit Count: updated at: Fri, 19 Jul 2019 23:53:02 GMT